This is the latest recevied weather packets stored in our database for station/object KB1JLI. If no packets are shown the sender has not sent any weather packets the latest 10 day(s).
| Time | Temp. | Humidity | Pressure | Rain* | Wind** | Luminosity | Snow |
|---|---|---|---|---|---|---|---|
| 1777390328 | 14.44° C | 54% | 1023.7 hPa | 0 mm | - | 671 W/m² | - |
| 1777390023 | 13.89° C | 54% | 1024 hPa | 0 mm | - | 666 W/m² | - |
| 1777389416 | 13.33° C | 55% | 1023.8 hPa | 0 mm | - | 657 W/m² | - |
| 1777387899 | 13.33° C | 55% | 1023.8 hPa | 0 mm | - | 623 W/m² | - |
| 1777386981 | 13.33° C | 55% | 1023.9 hPa | 0 mm | - | 601 W/m² | - |
| 1777386679 | 12.78° C | 53% | 1023.6 hPa | 0 mm | - | 593 W/m² | - |
| 1777386376 | 12.78° C | 52% | 1023.4 hPa | 0 mm | - | 584 W/m² | - |
| 1777386073 | 12.78° C | 56% | 1023.6 hPa | 0 mm | - | 575 W/m² | - |
| 1777385769 | 12.78° C | 55% | 1023.7 hPa | 0 mm | - | 565 W/m² | - |
| 1777385467 | 12.78° C | 58% | 1023.6 hPa | 0 mm | - | 555 W/m² | - |
| 1777384858 | 12.22° C | 58% | 1023.5 hPa | 0 mm | - | 535 W/m² | - |
| 1777384250 | 12.22° C | 57% | 1023.6 hPa | 0 mm | - | 516 W/m² | - |
| 1777383946 | 12.22° C | 57% | 1023.6 hPa | 0 mm | - | 505 W/m² | - |
| 1777383642 | 12.78° C | 57% | 1023.6 hPa | 0 mm | - | 491 W/m² | - |
| 1777383339 | 12.78° C | 56% | 1023.6 hPa | 0 mm | - | 481 W/m² | - |
| 1777383035 | 12.22° C | 59% | 1023.6 hPa | 0 mm | - | 468 W/m² | - |
| 1777382732 | 12.78° C | 60% | 1023.6 hPa | 0 mm | - | 457 W/m² | - |
| 1777382427 | 11.67° C | 60% | 1023.4 hPa | 0 mm | - | 445 W/m² | - |
| 1777381821 | 11.67° C | 59% | 1023.5 hPa | 0 mm | - | 420 W/m² | - |
| 1777381514 | 11.67° C | 60% | 1023.8 hPa | 0 mm | - | 406 W/m² | - |
| 1777381210 | 11.67° C | 61% | 1023.8 hPa | 0 mm | - | 392 W/m² | - |
| 1777379693 | 11.11° C | 66% | 1023.7 hPa | 0 mm | - | 301 W/m² | - |
| 1777378778 | 10.56° C | 70% | 1023.6 hPa | 0 mm | - | 281 W/m² | - |
| 1777378172 | 10° C | 75% | 1023.9 hPa | 0 mm | - | 250 W/m² | - |
| 1777377870 | 9.44° C | 79% | 1023.7 hPa | 0 mm | - | 235 W/m² | - |
* Rain latest hour (hover to see other rain measurements)
** Current wind speed in m/s (hover to see current wind gust speed)